• en France
  • Liste des pays
  • À 7 jours
  • Température de l'eau
  • Carte satellitaire
  • Carte météo
  • Widgets météo
  • user-avatar
    Se connecter

    Météo par heure à Santa Fe

    Ce jour, 17 Janvier, Mercredi

    Heure Température Précipitation Vent Pression Humidité
    00:00 +28°C° 0 mm 3 m/s 757 mmHg 54%
    01:00 +28°C° 0 mm 2 m/s 757 mmHg 56%
    02:00 +27°C° 0 mm 2 m/s 757 mmHg 58%
    03:00 +26°C° 0 mm 2 m/s 757 mmHg 60%
    04:00 +26°C° 0 mm 2 m/s 757 mmHg 63%
    05:00 +25°C° 0 mm 2 m/s 757 mmHg 65%
    06:00 +27°C° 0 mm 2 m/s 757 mmHg 60%
    07:00 +29°C° 0 mm 2 m/s 757 mmHg 55%
    08:00 +31°C° 0 mm 2 m/s 758 mmHg 50%
    09:00 +32°C° 0 mm 2 m/s 757 mmHg 46%
    10:00 +34°C° 0 mm 2 m/s 757 mmHg 42%
    11:00 +36°C° 0 mm 2 m/s 757 mmHg 39%
    12:00 +35°C° 0,2 mm 2 m/s 757 mmHg 41%
    13:00 +34°C° 0,2 mm 2 m/s 757 mmHg 44%
    14:00 +34°C° 0,2 mm 2 m/s 756 mmHg 46%
    15:00 +31°C° 1,2 mm 3 m/s 756 mmHg 52%
    16:00 +30°C° 1,2 mm 3 m/s 756 mmHg 59%
    17:00 +29°C° 1,2 mm 4 m/s 756 mmHg 65%
    18:00 +28°C° 0,6 mm 3 m/s 756 mmHg 70%
    19:00 +26°C° 0,6 mm 3 m/s 756 mmHg 76%
    20:00 +25°C° 0,6 mm 2 m/s 756 mmHg 81%
    21:00 +25°C° 0 mm 2 m/s 757 mmHg 81%
    22:00 +25°C° 0 mm 2 m/s 757 mmHg 81%
    23:00 +25°C° 0 mm 2 m/s 757 mmHg 81%

    Demain, 18 Janvier, Jeudi

    Heure Température Précipitation Vent Pression Humidité
    00:00 +24°C° 0 mm 2 m/s 757 mmHg 82%
    01:00 +24°C° 0 mm 2 m/s 757 mmHg 82%
    02:00 +24°C° 0 mm 1 m/s 757 mmHg 82%
    03:00 +23°C° 0 mm 2 m/s 757 mmHg 83%
    04:00 +23°C° 0 mm 2 m/s 757 mmHg 84%
    05:00 +23°C° 0 mm 2 m/s 757 mmHg 84%
    06:00 +25°C° 0 mm 2 m/s 758 mmHg 76%
    07:00 +27°C° 0 mm 2 m/s 758 mmHg 68%
    08:00 +29°C° 0 mm 2 m/s 758 mmHg 60%
    09:00 +31°C° 0 mm 2 m/s 758 mmHg 51%
    10:00 +34°C° 0 mm 2 m/s 758 mmHg 41%
    11:00 +37°C° 0 mm 3 m/s 758 mmHg 32%
    12:00 +38°C° 0 mm 3 m/s 757 mmHg 28%
    13:00 +39°C° 0 mm 3 m/s 756 mmHg 25%
    14:00 +40°C° 0 mm 3 m/s 756 mmHg 21%
    15:00 +40°C° 0 mm 3 m/s 755 mmHg 20%
    16:00 +40°C° 0 mm 3 m/s 755 mmHg 19%
    17:00 +40°C° 0 mm 3 m/s 755 mmHg 18%
    18:00 +37°C° 0 mm 3 m/s 755 mmHg 22%
    19:00 +35°C° 0 mm 2 m/s 755 mmHg 26%
    20:00 +31°C° 0 mm 2 m/s 755 mmHg 29%
    21:00 +30°C° 0 mm 2 m/s 756 mmHg 30%
    22:00 +30°C° 0 mm 3 m/s 756 mmHg 31%
    23:00 +29°C° 0 mm 3 m/s 757 mmHg 33%

    Après-demain, 19 Janvier, Vendredi

    Heure Température Précipitation Vent Pression Humidité
    00:00 +29°C° 0 mm 3 m/s 757 mmHg 35%
    01:00 +28°C° 0 mm 3 m/s 757 mmHg 37%
    02:00 +27°C° 0 mm 3 m/s 757 mmHg 40%
    03:00 +27°C° 0 mm 3 m/s 757 mmHg 42%
    04:00 +27°C° 0 mm 2 m/s 757 mmHg 45%
    05:00 +26°C° 0 mm 2 m/s 757 mmHg 48%
    06:00 +29°C° 0 mm 3 m/s 757 mmHg 44%
    07:00 +31°C° 0 mm 3 m/s 758 mmHg 41%
    08:00 +34°C° 0 mm 4 m/s 758 mmHg 37%
    09:00 +36°C° 0 mm 4 m/s 758 mmHg 31%
    10:00 +39°C° 0 mm 3 m/s 758 mmHg 25%
    11:00 +42°C° 0 mm 3 m/s 758 mmHg 18%
    12:00 +42°C° 0 mm 3 m/s 757 mmHg 17%
    13:00 +43°C° 0 mm 3 m/s 756 mmHg 15%
    14:00 +44°C° 0 mm 3 m/s 755 mmHg 13%
    15:00 +43°C° 0 mm 3 m/s 755 mmHg 14%
    16:00 +42°C° 0 mm 3 m/s 754 mmHg 15%
    17:00 +40°C° 0 mm 3 m/s 754 mmHg 16%
    18:00 +39°C° 0 mm 3 m/s 754 mmHg 18%
    19:00 +37°C° 0 mm 3 m/s 754 mmHg 20%
    20:00 +35°C° 0 mm 4 m/s 755 mmHg 22%
    21:00 +35°C° 0 mm 4 m/s 755 mmHg 23%
    22:00 +34°C° 0 mm 4 m/s 755 mmHg 24%
    23:00 +33°C° 0 mm 4 m/s 755 mmHg 24%

    20 Janvier, Samedi

    Heure Température Précipitation Vent Pression Humidité
    00:00 +32°C° 0 mm 4 m/s 755 mmHg 26%
    01:00 +30°C° 0 mm 4 m/s 755 mmHg 27%
    02:00 +29°C° 0 mm 4 m/s 754 mmHg 28%
    03:00 +29°C° 0 mm 4 m/s 754 mmHg 30%
    04:00 +28°C° 0 mm 3 m/s 755 mmHg 32%
    05:00 +27°C° 0 mm 3 m/s 755 mmHg 34%
    06:00 +30°C° 0 mm 4 m/s 755 mmHg 31%
    07:00 +33°C° 0 mm 4 m/s 755 mmHg 29%
    08:00 +35°C° 0 mm 5 m/s 756 mmHg 27%
    09:00 +37°C° 0 mm 4 m/s 755 mmHg 23%
    10:00 +40°C° 0 mm 4 m/s 755 mmHg 20%
    11:00 +42°C° 0 mm 4 m/s 755 mmHg 16%
    12:00 +43°C° 0 mm 4 m/s 754 mmHg 15%
    13:00 +44°C° 0 mm 4 m/s 753 mmHg 14%
    14:00 +45°C° 0 mm 4 m/s 752 mmHg 13%
    15:00 +43°C° 0 mm 4 m/s 752 mmHg 14%
    16:00 +42°C° 0 mm 4 m/s 752 mmHg 15%
    17:00 +41°C° 0 mm 4 m/s 752 mmHg 17%
    18:00 +38°C° 0 mm 3 m/s 752 mmHg 18%
    19:00 +37°C° 0 mm 3 m/s 752 mmHg 20%
    20:00 +35°C° 0 mm 3 m/s 753 mmHg 21%
    21:00 +34°C° 0 mm 3 m/s 753 mmHg 25%
    22:00 +32°C° 0 mm 2 m/s 753 mmHg 29%
    23:00 +31°C° 0 mm 2 m/s 753 mmHg 33%

    21 Janvier, Dimanche

    Heure Température Précipitation Vent Pression Humidité
    00:00 +29°C° 0 mm 2 m/s 753 mmHg 37%
    01:00 +28°C° 0 mm 1 m/s 753 mmHg 40%
    02:00 +27°C° 0 mm 1 m/s 753 mmHg 44%
    03:00 +27°C° 0 mm 1 m/s 753 mmHg 46%
    04:00 +26°C° 0 mm 1 m/s 753 mmHg 49%
    05:00 +25°C° 0 mm 1 m/s 754 mmHg 51%
    06:00 +27°C° 0 mm 1 m/s 754 mmHg 46%
    07:00 +29°C° 0 mm 1 m/s 754 mmHg 41%
    08:00 +32°C° 0 mm 2 m/s 754 mmHg 36%
    09:00 +35°C° 0 mm 3 m/s 754 mmHg 32%
    10:00 +37°C° 0 mm 4 m/s 754 mmHg 28%
    11:00 +40°C° 0 mm 5 m/s 753 mmHg 24%
    12:00 +40°C° 0 mm 5 m/s 753 mmHg 25%
    13:00 +40°C° 0 mm 6 m/s 752 mmHg 27%
    14:00 +40°C° 0 mm 7 m/s 752 mmHg 29%
    15:00 +38°C° 0 mm 7 m/s 751 mmHg 35%
    16:00 +36°C° 0 mm 6 m/s 751 mmHg 40%
    17:00 +34°C° 0 mm 6 m/s 751 mmHg 46%
    18:00 +32°C° 0 mm 5 m/s 751 mmHg 51%
    19:00 +30°C° 0 mm 4 m/s 751 mmHg 57%
    20:00 +28°C° 0 mm 3 m/s 751 mmHg 63%
    21:00 +27°C° 0 mm 3 m/s 751 mmHg 68%
    22:00 +26°C° 0 mm 3 m/s 751 mmHg 73%
    23:00 +26°C° 0 mm 2 m/s 751 mmHg 78%

    22 Janvier, Lundi

    Heure Température Précipitation Vent Pression Humidité
    00:00 +26°C° 0 mm 2 m/s 751 mmHg 78%
    01:00 +26°C° 0 mm 2 m/s 751 mmHg 77%
    02:00 +26°C° 0 mm 2 m/s 751 mmHg 77%
    03:00 +26°C° 0,5 mm 2 m/s 751 mmHg 80%
    04:00 +26°C° 0,5 mm 2 m/s 751 mmHg 83%
    05:00 +25°C° 0,5 mm 1 m/s 751 mmHg 86%
    06:00 +26°C° 1 mm 2 m/s 751 mmHg 83%
    07:00 +27°C° 1 mm 2 m/s 752 mmHg 80%
    08:00 +28°C° 1 mm 2 m/s 752 mmHg 78%
    09:00 +30°C° 0,1 mm 2 m/s 751 mmHg 70%
    10:00 +31°C° 0,1 mm 2 m/s 751 mmHg 62%
    11:00 +34°C° 0,1 mm 3 m/s 750 mmHg 54%
    12:00 +35°C° 0 mm 2 m/s 750 mmHg 51%
    13:00 +36°C° 0 mm 2 m/s 749 mmHg 47%
    14:00 +36°C° 0 mm 1 m/s 748 mmHg 44%
    15:00 +36°C° 0 mm 1 m/s 748 mmHg 44%
    16:00 +36°C° 0 mm 1 m/s 748 mmHg 44%
    17:00 +36°C° 0 mm 1 m/s 748 mmHg 44%
    18:00 +34°C° 0 mm 1 m/s 748 mmHg 49%
    19:00 +33°C° 0 mm 1 m/s 749 mmHg 53%
    20:00 +32°C° 0 mm 1 m/s 749 mmHg 57%
    21:00 +31°C° 0 mm 1 m/s 749 mmHg 60%
    22:00 +30°C° 0 mm 1 m/s 749 mmHg 63%
    23:00 +30°C° 0 mm 1 m/s 750 mmHg 66%
    Voir plus